Weather History for WKQIR - September, 2013

Change the Weather History Date:

Saturday, September 7, 2013

  Actual Average Record
Temperature  
Mean Temperature 94 °F -  
Max Temperature 106 °F - - ()
Min Temperature 83 °F - - ()
Cooling Degree Days 30    
Growing Degree Days 44 (Base 50)    
Moisture  
Dew Point 77 °F    
Average Humidity 60    
Maximum Humidity 89    
Minimum Humidity 29    
Precipitation  
Precipitation 0.00 in - - ()
Sea Level Pressure  
Sea Level Pressure 29.64 in    
Wind  
Wind Speed 8 mph ()    
Max Wind Speed 20 mph    
Max Gust Speed -    
Visibility 6.0 miles    
Events      
T = Trace of Precipitation, MM = Missing Value Source: Averaged Metar Reports

Daily Weather History Graph

Daily Weather History Graph

Search for Another Location

Airport or City:

Trip Planner

Search our weather history database for the weather conditions in past years. The results will help you decide how hot, cold, wet, or windy it might be!

Date:

Astronomy

Sep. 07, 2013 Rise Set
Actual Time 5:17 AM AST 5:47 PM AST
Civil Twilight 4:54 AM AST 6:10 PM AST
Nautical Twilight 4:27 AM AST 6:37 PM AST
Astronomical Twilight 4:00 AM AST 7:04 PM AST
Moon 6:50 AM AST (9/7) 6:51 PM AST (9/7)
Length of Visible Light 13h 15m
Length of Day
12h 29m
Waxing Crescent, 4% of the Moon is Illuminated
Sep 7
Waxing Crescent
Sep 12
First Quarter
Sep 19
Full
Sep 27
Last Quarter
Oct 5
New

Hourly Weather History & Observations

Time (AST) Temp. Heat Index Dew Point Humidity Pressure Visibility Wind Dir Wind Speed Gust Speed Precip Events Conditions
12:55 AM 87.1 °F 107.5 °F 82.9 °F 87% 29.62 in 6.2 mi NNE 10.4 mph - N/A   Clear
1:55 AM 86.9 °F 105.6 °F 81.9 °F 85% 29.62 in 6.2 mi NE 6.9 mph - N/A   Clear
2:55 AM 86.4 °F 103.1 °F 81.1 °F 84% 29.62 in 6.2 mi NNE 4.6 mph - N/A   Clear
3:55 AM 86.0 °F 101.4 °F 80.4 °F 83% 29.64 in 6.2 mi NE 4.6 mph - N/A   Clear
4:55 AM 83.5 °F 95.9 °F 80.1 °F 89% 29.65 in 5.6 mi NNW 8.1 mph - N/A   Clear
5:55 AM 83.8 °F 96.7 °F 79.9 °F 88% 29.66 in 5.0 mi NNW 5.8 mph - N/A   Clear
6:46 AM 87.8 °F 104.9 °F 80.6 °F 79% 29.68 in - North 6.9 mph - N/A   Haze
6:47 AM 87.8 °F 104.9 °F 80.6 °F 79% 29.68 in 3.7 mi North 6.9 mph - N/A   Haze
6:55 AM 87.6 °F 105.0 °F 80.6 °F 80% 29.68 in 5.6 mi NNW 6.9 mph - N/A   Haze
7:55 AM 93.7 °F 103.6 °F 73.6 °F 52% 29.69 in 6.2 mi North 11.5 mph - N/A   Clear
8:55 AM 96.3 °F 112.4 °F 77.9 °F 55% 29.70 in 6.2 mi North 13.8 mph - N/A   Clear
9:55 AM 99.0 °F 114.5 °F 76.8 °F 49% 29.68 in 6.2 mi NNE 11.5 mph - N/A   Clear
10:55 AM 101.5 °F 113.6 °F 73.8 °F 41% 29.66 in 6.2 mi NNE 9.2 mph - N/A   Clear
11:55 AM 104.0 °F 111.3 °F 69.1 °F 32% 29.65 in 6.2 mi North 8.1 mph - N/A   Partly Cloudy
12:55 PM 105.6 °F 112.9 °F 68.2 °F 30% 29.62 in 6.2 mi North 6.9 mph - N/A   Clear
1:55 PM 106.5 °F 113.8 °F 68.0 °F 29% 29.60 in 6.2 mi North 6.9 mph - N/A   Clear
2:55 PM 106.9 °F 116.5 °F 70.0 °F 31% 29.58 in 6.2 mi East 8.1 mph - N/A   Clear
3:55 PM 104.5 °F 119.2 °F 75.2 °F 39% 29.58 in 6.2 mi NNE 12.7 mph - N/A   Clear
4:55 PM 100.8 °F 120.5 °F 78.8 °F 50% 29.59 in 6.2 mi NNE 12.7 mph - N/A   Clear
5:55 PM 97.5 °F 117.0 °F 79.3 °F 56% 29.61 in 6.2 mi NNE 12.7 mph - N/A   Clear
6:55 PM 95.4 °F 109.9 °F 76.8 °F 55% 29.63 in 6.2 mi North 19.6 mph - N/A   Clear
7:55 PM 93.9 °F 108.4 °F 77.0 °F 58% 29.65 in 6.2 mi North 15.0 mph - N/A   Clear
8:55 PM 92.5 °F 105.3 °F 76.1 °F 59% 29.66 in 6.2 mi North 12.7 mph - N/A   Clear
9:55 PM 91.4 °F 101.3 °F 74.5 °F 57% 29.66 in 6.2 mi North 13.8 mph - N/A   Clear
10:55 PM 90.0 °F 98.5 °F 73.4 °F 58% 29.65 in 6.2 mi NNW 8.1 mph - N/A   Partly Cloudy
11:55 PM 88.5 °F 95.8 °F 72.7 °F 59% 29.63 in 6.2 mi NNW 5.8 mph - N/A   Clear